Bangor, ME

8:50 AM EST on December 08, 2019 (GMT -0500)
Bangor International

Weather History for KBGR - October, 2019

Change the Weather History Date:

Thursday, October 10, 2019

  Actual Average Record
Temperature  
Mean Temperature 53 °F 49 °F  
Max Temperature 63 °F 60 °F 88 °F (1949)
Min Temperature 42 °F 38 °F 22 °F (1952)
Degree Days  
Heating Degree Days 12 16  
Month to date heating degree days 145 141  
Since 1 July heating degree days 359 413  
Cooling Degree Days 0 0  
Month to date cooling degree days 0 0  
Year to date cooling degree days 336 317  
Growing Degree Days 3 (Base 50)    
Moisture  
Dew Point 41 °F    
Average Humidity 66    
Maximum Humidity 96    
Minimum Humidity 36    
Precipitation  
Precipitation 0.00 in 0.13 in 1.58 in (1971)
Month to date precipitation 1.48 1.38  
Year to date precipitation 40.50 31.46  
Snow  
Snow 0.00 in 0.00 in 0.00 in (2002)
Month to date snowfall 0.0 0.0  
Since 1 July snowfall 0.0 0.0  
Since 1 September snowfall 0.0 0.0  
Snow Depth 0.00 in    
Sea Level Pressure  
Sea Level Pressure 30.39 in    
Wind  
Wind Speed 9 mph (NNE)    
Max Wind Speed 20 mph    
Max Gust Speed 24 mph    
Visibility 10 miles    
Events      
T = Trace of Precipitation, MM = Missing Value Source: NWS Daily Summary

Daily Weather History Graph

Daily Weather History Graph

Search for Another Location

Airport or City:

Astronomy

Oct. 10, 2019 Rise Set
Actual Time 6:44 AM EDT 5:59 PM EDT
Civil Twilight 6:14 AM EDT 6:29 PM EDT
Nautical Twilight 5:40 AM EDT 7:02 PM EDT
Astronomical Twilight 5:06 AM EDT 7:36 PM EDT
Moon 5:10 PM EDT (10/10) 3:12 AM EDT (10/10)
Length of Visible Light 12h 14m
Length of Day
11h 15m
Waxing Gibbous, 91% of the Moon is Illuminated
Oct 10
Waxing Gibbous
Oct 13
Full
Oct 21
Last Quarter
Oct 27
New
Nov 4
First Quarter

Hourly Weather History & Observations

Time (EDT) Temp. Windchill Dew Point Humidity Pressure Visibility Wind Dir Wind Speed Gust Speed Precip Events Conditions
12:53 AM 44.1 °F 40.8 °F 41.0 °F 89% 30.40 in 10.0 mi North 5.8 mph - N/A   Mostly Cloudy
1:53 AM 44.1 °F 38.6 °F 41.0 °F 89% 30.40 in 10.0 mi North 10.4 mph - N/A   Mostly Cloudy
2:53 AM 44.1 °F 39.5 °F 41.0 °F 89% 30.39 in 10.0 mi NNE 8.1 mph - N/A   Mostly Cloudy
3:53 AM 43.0 °F 38.8 °F 39.9 °F 89% 30.41 in 10.0 mi NNE 6.9 mph - N/A   Mostly Cloudy
4:53 AM 43.0 °F 38.2 °F 41.0 °F 93% 30.42 in 10.0 mi North 8.1 mph - N/A   Mostly Cloudy
6:53 AM 43.0 °F 38.2 °F 39.9 °F 89% 30.42 in 10.0 mi North 8.1 mph - N/A   Mostly Cloudy
7:53 AM 44.1 °F 39.0 °F 39.9 °F 85% 30.43 in 10.0 mi North 9.2 mph - N/A   Mostly Cloudy
8:53 AM 46.0 °F 41.9 °F 41.0 °F 83% 30.44 in 10.0 mi North 8.1 mph - N/A   Overcast
9:53 AM 48.9 °F - 41.0 °F 74% 30.44 in 10.0 mi NNE 12.7 mph - N/A   Mostly Cloudy
10:53 AM 53.1 °F - 41.0 °F 64% 30.43 in 10.0 mi NNE 11.5 mph - N/A   Mostly Cloudy
11:53 AM 55.0 °F - 41.0 °F 59% 30.42 in 10.0 mi NNE 13.8 mph - N/A   Mostly Cloudy
12:53 PM 59.0 °F - 39.9 °F 49% 30.40 in 10.0 mi NNE 13.8 mph - N/A   Mostly Cloudy
1:53 PM 62.1 °F - 39.9 °F 44% 30.36 in 10.0 mi NNE 10.4 mph 20.7 mph N/A   Mostly Cloudy
2:53 PM 63.0 °F - 35.1 °F 35% 30.35 in 10.0 mi NNE 11.5 mph 19.6 mph N/A   Mostly Cloudy
3:53 PM 61.0 °F - 41.0 °F 48% 30.35 in 10.0 mi North 10.4 mph - N/A   Mostly Cloudy
4:53 PM 59.0 °F - 42.1 °F 53% 30.35 in 10.0 mi North 9.2 mph - N/A   Overcast
5:53 PM 57.0 °F - 41.0 °F 55% 30.35 in 10.0 mi NNE 10.4 mph - N/A   Overcast
6:53 PM 55.0 °F - 41.0 °F 59% 30.35 in 10.0 mi NNE 8.1 mph - N/A   Overcast
7:53 PM 53.1 °F - 42.1 °F 66% 30.37 in 10.0 mi North 8.1 mph - N/A   Overcast
8:53 PM 53.1 °F - 43.0 °F 69% 30.36 in 10.0 mi North 8.1 mph - N/A   Mostly Cloudy
9:53 PM 51.1 °F - 43.0 °F 74% 30.36 in 10.0 mi NNE 6.9 mph - N/A   Overcast
10:53 PM 50.0 °F - 43.0 °F 77% 30.37 in 10.0 mi North 10.4 mph - N/A   Mostly Cloudy
11:53 PM 50.0 °F - 42.1 °F 74% 30.38 in 10.0 mi North 5.8 mph - N/A   Scattered Clouds